| time (UTC) | temp C | wind direction | speed KPH | gust KPH | rain 1hr cm | rain 24hr cm | rain mn cm | humidity % | barometer mb |
| 20260507054004 | 16 | 126 | 4.8 | 12.9 | 0.00 | 0.00 | 0.51 | 10 | 1000.1 |
| 20260507053004 | 17 | 105 | 6.4 | 12.9 | 0.00 | 0.00 | 0.51 | 10 | 1000.2 |
| 20260507052004 | 16 | 46 | 4.8 | 14.5 | 0.00 | 0.00 | 0.51 | 10 | 1000.0 |
| 20260507051003 | 15 | 85 | 3.2 | 11.3 | 0.00 | 0.00 | 0.51 | 10 | 999.9 |
| 20260507050005 | 12 | 155 | 3.2 | 9.7 | 0.00 | 0.00 | 0.51 | 10 | 1000.1 |
| 20260507045006 | 12 | 160 | 1.6 | 6.4 | 0.00 | 0.00 | 0.51 | 10 | 1000.1 |
| 20260507044003 | 12 | 189 | 1.6 | 4.8 | 0.00 | 0.00 | 0.51 | 10 | 1000.1 |
| 20260507042003 | 11 | 49 | 1.6 | 6.4 | 0.00 | 0.00 | 0.51 | 10 | 1000.2 |
| 20260507041004 | 10 | 41 | 3.2 | 4.8 | 0.00 | 0.00 | 0.51 | 10 | 1000.2 |
| 20260507035003 | 6 | 233 | 1.6 | 3.2 | 0.00 | 0.00 | 0.00 | 10 | 1000.0 |
| 20260507033005 | 4 | 189 | 3.2 | 3.2 | 0.00 | 0.00 | 0.00 | 10 | 999.9 |
| 20260507032003 | 3 | 208 | 3.2 | 3.2 | 0.00 | 0.00 | 0.00 | 10 | 999.9 |
| 20260507030004 | 2 | 185 | 1.6 | 4.8 | 0.00 | 0.00 | 0.00 | 10 | 999.8 |
| 20260507024004 | 1 | 226 | 3.2 | 4.8 | 0.00 | 0.00 | 0.00 | 10 | 999.9 |
| 20260507023004 | 0 | 221 | 1.6 | 3.2 | 0.00 | 0.00 | 0.00 | 10 | 999.8 |
| 20260507021004 | 0 | 235 | 3.2 | 4.8 | 0.00 | 0.00 | 0.00 | 10 | 999.7 |
| 20260507020004 | 0 | 246 | 3.2 | 3.2 | 0.00 | 0.00 | 0.00 | 10 | 999.5 |
| 20260507013004 | 0 | 220 | 3.2 | 3.2 | 0.00 | 0.00 | 0.00 | 10 | 999.9 |
| 20260507012003 | 0 | 308 | 1.6 | 3.2 | 0.00 | 0.00 | 0.00 | 10 | 999.7 |
| 20260507011003 | 0 | 301 | 1.6 | 3.2 | 0.00 | 0.00 | 0.00 | 10 | 999.8 |
| 20260507010004 | 0 | 304 | 0.0 | 4.8 | 0.00 | 0.00 | 0.00 | 10 | 999.7 |
| 20260507005003 | 0 | 33 | 1.6 | 3.2 | 0.00 | 0.00 | 0.00 | 10 | 999.6 |
| 20260507004003 | 0 | 217 | 0.0 | 3.2 | 0.00 | 0.00 | 0.00 | 10 | 999.7 |
| 20260507003004 | 0 | 245 | 1.6 | 3.2 | 0.00 | 0.00 | 0.00 | 10 | 999.8 |
| 20260507001003 | 0 | 273 | 3.2 | 4.8 | 0.00 | 0.00 | 0.00 | 10 | 999.9 |
| 20260507000004 | 1 | 303 | 3.2 | 4.8 | 0.00 | 0.00 | 0.00 | 10 | 999.6 |
| 20260506234003 | 1 | 278 | 3.2 | 3.2 | 0.00 | 0.00 | 0.00 | 10 | 999.6 |
| 20260506232003 | 1 | 235 | 0.0 | 3.2 | 0.00 | 0.00 | 0.00 | 10 | 999.5 |
| 20260506231004 | 1 | 186 | 0.0 | 3.2 | 0.00 | 0.00 | 0.00 | 10 | 999.4 |
| 20260506230003 | 1 | 25 | 1.6 | 3.2 | 0.00 | 0.00 | 0.00 | 10 | 999.2 |
| 20260506225003 | 1 | 277 | 0.0 | 3.2 | 0.00 | 0.00 | 0.00 | 10 | 999.3 |
| 20260506224003 | 1 | 237 | 0.0 | 3.2 | 0.00 | 0.00 | 0.00 | 10 | 999.4 |
| 20260506223003 | 1 | 258 | 1.6 | 3.2 | 0.00 | 0.00 | 0.00 | 10 | 999.3 |
| 20260506220004 | 1 | 181 | 1.6 | 3.2 | 0.00 | 0.00 | 0.00 | 10 | 999.2 |
| 20260506215003 | 2 | 181 | 0.0 | 3.2 | 0.00 | 0.00 | 0.00 | 10 | 999.0 |
| 20260506213004 | 2 | 181 | 1.6 | 3.2 | 0.00 | 0.00 | 0.00 | 10 | 998.9 |
| 20260506212003 | 2 | 121 | 0.0 | 3.2 | 0.00 | 0.00 | 0.00 | 10 | 998.9 |
| 20260506210004 | 2 | 188 | 0.0 | 3.2 | 0.00 | 0.00 | 0.00 | 10 | 998.8 |
| 20260506205003 | 2 | 187 | 1.6 | 3.2 | 0.00 | 0.00 | 15.60 | 10 | 998.9 |
| 20260506203004 | 2 | 181 | 0.0 | 3.2 | 0.00 | 0.00 | 15.60 | 10 | 998.6 |
| 20260506202003 | 3 | 102 | 0.0 | 3.2 | 0.00 | 0.00 | 15.60 | 10 | 998.7 |
| 20260506201002 | 3 | 181 | 0.0 | 3.2 | 0.00 | 0.00 | 15.60 | 10 | 998.7 |
| 20260506195003 | 3 | 181 | 1.6 | 3.2 | 0.00 | 0.00 | 15.60 | 10 | 998.6 |
| 20260506194003 | 3 | 254 | 0.0 | 3.2 | 0.00 | 0.00 | 15.60 | 10 | 998.6 |
| 20260506193003 | 4 | 253 | 0.0 | 4.8 | 0.00 | 0.00 | 15.60 | 10 | 998.6 |
| 20260506192003 | 4 | 254 | 3.2 | 6.4 | 0.00 | 0.00 | 15.60 | 10 | 998.7 |
| 20260506191003 | 4 | 252 | 1.6 | 4.8 | 0.00 | 0.00 | 15.60 | 10 | 998.6 |
| 20260506190004 | 5 | 274 | 0.0 | 3.2 | 0.00 | 0.00 | 15.60 | 10 | 998.6 |
| 20260506184003 | 5 | 269 | 1.6 | 6.4 | 0.00 | 0.00 | 15.60 | 10 | 998.7 |
| 20260506183007 | 6 | 255 | 3.2 | 6.4 | 0.00 | 0.00 | 15.60 | 10 | 998.8 |
| 20260506182003 | 6 | 245 | 1.6 | 4.8 | 0.00 | 0.00 | 15.60 | 10 | 998.5 |
| 20260506175002 | 8 | 245 | 3.2 | 11.3 | 0.00 | 0.00 | 15.60 | 10 | 998.4 |
| 20260506173004 | 10 | 262 | 3.2 | 17.7 | 0.00 | 0.00 | 15.60 | 10 | 998.4 |
| 20260506172003 | 10 | 281 | 6.4 | 14.5 | 0.00 | 0.00 | 15.60 | 10 | 998.1 |
| 20260506171003 | 10 | 272 | 6.4 | 14.5 | 0.00 | 0.00 | 15.60 | 10 | 998.1 |
| 20260506170004 | 10 | 269 | 4.8 | 14.5 | 0.00 | 0.00 | 15.60 | 10 | 998.2 |
| 20260506165003 | 11 | 274 | 4.8 | 12.9 | 0.00 | 0.00 | 15.60 | 10 | 998.3 |
| 20260506164003 | 11 | 279 | 4.8 | 16.1 | 0.00 | 0.00 | 15.60 | 10 | 998.0 |
| 20260506163004 | 12 | 275 | 8.0 | 17.7 | 0.00 | 0.00 | 15.60 | 10 | 997.9 |
| 20260506162003 | 11 | 294 | 8.0 | 19.3 | 0.00 | 0.00 | 15.60 | 10 | 997.8 |
| 20260506155002 | 14 | 295 | 8.0 | 19.3 | 0.00 | 0.00 | 15.60 | 10 | 997.7 |
| 20260506154003 | 15 | 276 | 6.4 | 22.5 | 0.00 | 0.00 | 15.60 | 10 | 997.6 |
| 20260506153003 | 16 | 270 | 8.0 | 17.7 | 0.00 | 0.00 | 15.60 | 10 | 997.6 |
| 20260506152003 | 16 | 268 | 8.0 | 22.5 | 0.00 | 0.00 | 15.60 | 10 | 997.6 |
| 20260506151003 | 16 | 262 | 4.8 | 24.1 | 0.00 | 0.00 | 15.60 | 10 | 997.4 |
| 20260506150004 | 16 | 273 | 12.9 | 22.5 | 0.00 | 0.00 | 15.60 | 10 | 997.5 |